Погода в Лохе

Россия / Саратовская область     52°07′43″N   45°51′28″E
темп.,
°C
ветер,
м/с
пор.,
м/с
влажн.,
%
обл.,
%
осадки,
мм/ч
давл.,
гПа
погр.,
м
17 мая, вт
вт1701:00+6з511935 0.0 1006307
04:00+5з411930 0.0 1006266
07:00+6з511875 0.0 1006433
10:00+11з7106387 0.0 10051288
13:00+13зюз794998 0.6 10042208
16:00+12зюз795369 1.6 10031732
19:00+10з5868100 1.1 1003853
22:00+7зюз61087100 2.0 10041047
18 мая, ср
ср1801:00+7з6992100 0.4 10031065
04:00+6з71092100 1.2 1003959
07:00+6з6994100 0.8 1004884
10:00+7зсз6988100 0.9 1006697
13:00+11зсз566646 0.3 10071238
16:00+11з5667100 0.4 1008884
19:00+11зсз256767 0.0 1009455
22:00+8ссз478968 0.1 1011257
19 мая, чт
чт1901:00+5ссз34955 0.0 101274
04:00+6сз349587 0.0 101297
07:00+8сз368812 0.0 1013443
10:00+11зсз566455 0.1 10131327
13:00+11зсз6757100 0.2 10131660
16:00+13зсз574797 0.2 10122096
19:00+12зсз68606 0.0 10111012
22:00+6ссз49863 0.1 1013423
20 мая, пт
пт2001:00+4сз49962 0.0 1014263
04:00+2ссз410950 0.0 1015254
07:00+5сз510790 0.0 1016473
10:00+9сз795886 0.0 10151735
13:00+9сз71060100 0.1 10161793
16:00+10сз91246100 0.1 10152382
19:00+10ссз68535 0.0 10161439
22:00+5ссз33714 0.0 101734
21 мая, сб
сб2101:00+3ссз117573 0.0 101710
04:00+2юз2276100 0.0 101610
07:00+6ю2367100 0.0 1015126
10:00+9ю4557100 0.0 1012889
13:00+6юв5787100 0.5 1010575
16:00+6вюв5796100 2.4 1008407
19:00+6в5894100 0.9 1007450
22:00+6в4993100 0.9 1007437